Time,TemperatureF,DewpointF,PressureIn,WindDirection,WindDirectionDegrees,WindSpeedMPH,WindSpeedGustMPH,Humidity,HourlyPrecipIn,Conditions,Clouds,dailyrainin,SoftwareType,DateUTC
2014-04-18 00:01:00,44.7,20.7,30.07,SSW,197,4.0,13.0,38,0.00,,---,0.00,VWS V14.00,2014-04-18 06:01:00,
2014-04-18 00:06:00,44.6,20.0,30.06,SW,227,3.0,13.0,37,0.00,,---,0.00,VWS V14.00,2014-04-18 06:06:00,
2014-04-18 00:11:00,44.6,20.6,30.06,ESE,103,4.0,14.0,38,0.00,,---,0.00,VWS V14.00,2014-04-18 06:11:00,
2014-04-18 00:16:00,44.5,20.5,30.06,South,184,6.0,15.0,38,0.00,,---,0.00,VWS V14.00,2014-04-18 06:16:00,
2014-04-18 00:21:00,44.3,19.7,30.06,SW,215,0.0,15.0,37,0.00,,---,0.00,VWS V14.00,2014-04-18 06:21:00,
2014-04-18 00:26:00,44.2,20.2,30.06,ENE,75,5.0,15.0,38,0.00,,---,0.00,VWS V14.00,2014-04-18 06:26:00,
2014-04-18 00:31:00,44.2,20.8,30.06,ESE,119,5.0,13.0,39,0.00,,---,0.00,VWS V14.00,2014-04-18 06:31:00,
2014-04-18 00:36:00,44.1,20.1,30.06,ESE,106,8.0,13.0,38,0.00,,---,0.00,VWS V14.00,2014-04-18 06:36:00,
2014-04-18 00:41:00,44.3,19.0,30.07,SSE,147,4.0,22.0,36,0.00,,---,0.00,VWS V14.00,2014-04-18 06:41:00,
2014-04-18 00:46:00,44.7,19.4,30.07,East,86,0.0,22.0,36,0.00,,---,0.00,VWS V14.00,2014-04-18 06:46:00,
2014-04-18 00:51:00,44.6,20.0,30.07,ENE,72,2.0,22.0,37,0.00,,---,0.00,VWS V14.00,2014-04-18 06:51:00,
2014-04-18 00:56:00,44.5,19.9,30.07,SSW,205,4.0,22.0,37,0.00,,---,0.00,VWS V14.00,2014-04-18 06:56:00,
2014-04-18 01:01:00,44.5,19.2,30.06,SE,138,5.0,12.0,36,0.00,,---,0.00,VWS V14.00,2014-04-18 07:01:00,
2014-04-18 01:06:00,44.5,20.5,30.06,SSW,207,1.0,12.0,38,0.00,,---,0.00,VWS V14.00,2014-04-18 07:06:00,
2014-04-18 01:11:00,44.5,19.2,30.06,SSE,158,16.0,23.0,36,0.00,,---,0.00,VWS V14.00,2014-04-18 07:11:00,
2014-04-18 01:16:00,44.8,20.1,30.06,SSE,155,5.0,23.0,37,0.00,,---,0.00,VWS V14.00,2014-04-18 07:16:00,
2014-04-18 01:21:00,44.7,19.4,30.06,ESE,121,7.0,23.0,36,0.00,,---,0.00,VWS V14.00,2014-04-18 07:21:00,
2014-04-18 01:26:00,44.7,20.7,30.06,South,176,0.0,23.0,38,0.00,,---,0.00,VWS V14.00,2014-04-18 07:26:00,
2014-04-18 01:31:00,44.4,20.4,30.06,South,186,1.0,12.0,38,0.00,,---,0.00,VWS V14.00,2014-04-18 07:31:00,
2014-04-18 01:36:00,44.2,20.2,30.06,SW,222,2.0,12.0,38,0.00,,---,0.00,VWS V14.00,2014-04-18 07:36:00,
2014-04-18 01:41:00,44.0,21.2,30.06,SE,143,13.0,13.0,40,0.00,,---,0.00,VWS V14.00,2014-04-18 07:41:00,
2014-04-18 01:46:00,43.8,21.1,30.05,South,182,8.0,20.0,40,0.00,,---,0.00,VWS V14.00,2014-04-18 07:46:00,
2014-04-18 01:51:00,43.8,21.1,30.05,SSE,155,8.0,20.0,40,0.00,,---,0.00,VWS V14.00,2014-04-18 07:51:00,
2014-04-18 01:56:00,43.6,20.3,30.05,WSW,246,5.0,20.0,39,0.00,,---,0.00,VWS V14.00,2014-04-18 07:56:00,
2014-04-18 02:01:00,43.5,20.8,30.05,SSE,164,23.0,23.0,40,0.00,,---,0.00,VWS V14.00,2014-04-18 08:01:00,
2014-04-18 02:06:00,43.5,20.2,30.05,South,171,6.0,23.0,39,0.00,,---,0.00,VWS V14.00,2014-04-18 08:06:00,
2014-04-18 02:11:00,43.3,20.6,30.04,WSW,258,5.0,23.0,40,0.00,,---,0.00,VWS V14.00,2014-04-18 08:11:00,
2014-04-18 02:16:00,43.3,20.6,30.04,SSW,198,5.0,23.0,40,0.00,,---,0.00,VWS V14.00,2014-04-18 08:16:00,
2014-04-18 02:21:00,43.4,20.7,30.03,SE,130,5.0,23.0,40,0.00,,---,0.00,VWS V14.00,2014-04-18 08:21:00,
2014-04-18 02:26:00,43.3,20.0,30.03,SSE,149,6.0,23.0,39,0.00,,---,0.00,VWS V14.00,2014-04-18 08:26:00,
2014-04-18 02:31:00,43.3,19.4,30.03,SW,225,2.0,10.0,38,0.00,,---,0.00,VWS V14.00,2014-04-18 08:31:00,
2014-04-18 02:36:00,43.5,20.8,30.03,ESE,111,2.0,14.0,40,0.00,,---,0.00,VWS V14.00,2014-04-18 08:36:00,
2014-04-18 02:41:00,43.6,20.3,30.03,East,80,1.0,22.0,39,0.00,,---,0.00,VWS V14.00,2014-04-18 08:41:00,
2014-04-18 02:46:00,43.5,20.2,30.03,SE,142,5.0,22.0,39,0.00,,---,0.00,VWS V14.00,2014-04-18 08:46:00,
2014-04-18 02:51:00,43.7,19.8,30.03,WSW,246,1.0,22.0,38,0.00,,---,0.00,VWS V14.00,2014-04-18 08:51:00,
2014-04-18 02:56:00,43.6,19.7,30.03,West,281,5.0,22.0,38,0.00,,---,0.00,VWS V14.00,2014-04-18 08:56:00,
2014-04-18 03:01:00,43.9,19.3,30.03,ESE,105,2.0,19.0,37,0.00,,---,0.00,VWS V14.00,2014-04-18 09:01:00,
2014-04-18 03:06:00,44.0,19.4,30.02,ESE,123,9.0,19.0,37,0.00,,---,0.00,VWS V14.00,2014-04-18 09:06:00,
2014-04-18 03:11:00,44.1,18.9,30.02,NNE,12,8.0,19.0,36,0.00,,---,0.00,VWS V14.00,2014-04-18 09:11:00,
2014-04-18 03:16:00,44.2,19.0,30.02,SSW,205,0.0,19.0,36,0.00,,---,0.00,VWS V14.00,2014-04-18 09:16:00,
2014-04-18 03:21:00,44.4,18.5,30.02,South,174,6.0,19.0,35,0.00,,---,0.00,VWS V14.00,2014-04-18 09:21:00,
2014-04-18 03:26:00,44.7,18.8,30.01,SW,215,3.0,19.0,35,0.00,,---,0.00,VWS V14.00,2014-04-18 09:26:00,
2014-04-18 03:31:00,44.7,18.1,30.02,NW,319,0.0,10.0,34,0.00,,---,0.00,VWS V14.00,2014-04-18 09:31:00,
2014-04-18 03:36:00,44.7,18.8,30.02,SSE,163,7.0,12.0,35,0.00,,---,0.00,VWS V14.00,2014-04-18 09:36:00,
2014-04-18 03:41:00,44.7,18.1,30.02,SSW,203,0.0,12.0,34,0.00,,---,0.00,VWS V14.00,2014-04-18 09:41:00,
2014-04-18 03:45:00,44.7,18.8,30.01,SSE,151,2.0,12.0,35,0.00,,---,0.00,VWS V14.00,2014-04-18 09:45:00,
2014-04-18 03:59:00,44.3,19.0,30.01,SSW,193,4.0,13.0,36,0.00,,---,0.00,VWS V14.00,2014-04-18 09:59:00,
2014-04-18 04:04:00,44.1,18.9,30.01,SSE,165,5.0,13.0,36,0.00,,---,0.00,VWS V14.00,2014-04-18 10:04:00,
2014-04-18 04:09:00,44.2,19.0,30.01,ESE,122,4.0,17.0,36,0.00,,---,0.00,VWS V14.00,2014-04-18 10:09:00,
2014-04-18 04:14:00,44.0,18.8,30.00,South,183,3.0,17.0,36,0.00,,---,0.00,VWS V14.00,2014-04-18 10:14:00,
2014-04-18 04:19:00,43.8,19.9,30.01,SSW,200,0.0,17.0,38,0.00,,---,0.00,VWS V14.00,2014-04-18 10:19:00,
2014-04-18 04:24:00,43.6,19.1,30.01,SW,221,3.0,17.0,37,0.00,,---,0.00,VWS V14.00,2014-04-18 10:24:00,
2014-04-18 04:29:00,43.8,18.6,30.01,ESE,110,2.0,10.0,36,0.00,,---,0.00,VWS V14.00,2014-04-18 10:29:00,
2014-04-18 04:34:00,43.9,18.0,30.01,WSW,242,0.0,10.0,35,0.00,,---,0.00,VWS V14.00,2014-04-18 10:34:00,
2014-04-18 04:39:00,43.7,17.9,30.01,SSE,152,1.0,10.0,35,0.00,,---,0.00,VWS V14.00,2014-04-18 10:39:00,
2014-04-18 04:44:00,43.6,21.5,30.01,SSE,167,0.0,10.0,41,0.00,,---,0.00,VWS V14.00,2014-04-18 10:44:00,
2014-04-18 04:49:00,42.9,22.5,30.01,South,179,8.0,10.0,44,0.00,,---,0.00,VWS V14.00,2014-04-18 10:49:00,
2014-04-18 04:54:00,42.2,19.0,30.01,SSW,209,0.0,10.0,39,0.00,,---,0.00,VWS V14.00,2014-04-18 10:54:00,
2014-04-18 04:59:00,42.2,21.3,30.01,SW,222,2.0,2.0,43,0.00,,---,0.00,VWS V14.00,2014-04-18 10:59:00,
2014-04-18 05:04:00,41.9,22.6,30.01,SSW,210,2.0,6.0,46,0.00,,---,0.00,VWS V14.00,2014-04-18 11:04:00,
2014-04-18 05:09:00,41.7,21.9,30.01,SW,227,0.0,7.0,45,0.00,,---,0.00,VWS V14.00,2014-04-18 11:09:00,
2014-04-18 05:14:00,41.1,22.4,30.01,SSW,213,1.0,7.0,47,0.00,,---,0.00,VWS V14.00,2014-04-18 11:14:00,
2014-04-18 05:19:00,40.6,22.0,30.01,SW,219,5.0,7.0,47,0.00,,---,0.00,VWS V14.00,2014-04-18 11:19:00,
2014-04-18 05:24:00,40.9,22.7,30.00,South,173,7.0,7.0,48,0.00,,---,0.00,VWS V14.00,2014-04-18 11:24:00,
2014-04-18 05:29:00,41.0,20.2,30.01,SSE,168,0.0,9.0,43,0.00,,---,0.00,VWS V14.00,2014-04-18 11:29:00,
2014-04-18 05:34:00,41.5,21.2,30.00,SE,140,5.0,11.0,44,0.00,,---,0.00,VWS V14.00,2014-04-18 11:34:00,
2014-04-18 05:39:00,41.8,22.5,30.01,SSW,207,4.0,11.0,46,0.00,,---,0.00,VWS V14.00,2014-04-18 11:39:00,
2014-04-18 05:44:00,42.2,22.9,30.01,SSW,206,0.0,11.0,46,0.00,,---,0.00,VWS V14.00,2014-04-18 11:44:00,
2014-04-18 05:49:00,41.9,21.6,30.00,South,176,0.0,11.0,44,0.00,,---,0.00,VWS V14.00,2014-04-18 11:49:00,
2014-04-18 05:54:00,41.9,20.5,30.01,SSW,207,4.0,11.0,42,0.00,,---,0.00,VWS V14.00,2014-04-18 11:54:00,
2014-04-18 05:59:00,42.2,20.8,30.00,South,173,0.0,10.0,42,0.00,,---,0.00,VWS V14.00,2014-04-18 11:59:00,
2014-04-18 06:04:00,42.4,20.4,30.00,SE,144,0.0,15.0,41,0.00,,---,0.00,VWS V14.00,2014-04-18 12:04:00,
2014-04-18 06:09:00,42.5,20.5,30.00,NNE,26,0.0,15.0,41,0.00,,---,0.00,VWS V14.00,2014-04-18 12:09:00,
2014-04-18 06:14:00,42.3,20.3,30.00,ESE,123,0.0,15.0,41,0.00,,---,0.00,VWS V14.00,2014-04-18 12:14:00,
2014-04-18 06:19:00,42.2,21.3,30.00,NNE,17,0.0,15.0,43,0.00,,---,0.00,VWS V14.00,2014-04-18 12:19:00,
2014-04-18 06:24:00,41.6,21.9,30.00,ENE,62,0.0,15.0,45,0.00,,---,0.00,VWS V14.00,2014-04-18 12:24:00,
2014-04-18 06:29:00,41.5,19.6,30.01,ENE,62,2.0,8.0,41,0.00,,---,0.00,VWS V14.00,2014-04-18 12:29:00,
2014-04-18 06:34:00,41.3,21.0,30.01,WNW,293,0.0,8.0,44,0.00,,---,0.00,VWS V14.00,2014-04-18 12:34:00,
2014-04-18 06:39:00,41.0,20.8,30.01,WNW,293,0.0,8.0,44,0.00,,---,0.00,VWS V14.00,2014-04-18 12:39:00,
2014-04-18 06:44:00,40.5,22.9,30.01,West,278,0.0,8.0,49,0.00,,---,0.00,VWS V14.00,2014-04-18 12:44:00,
2014-04-18 06:49:00,39.8,22.7,30.01,West,275,0.0,8.0,50,0.00,,---,0.00,VWS V14.00,2014-04-18 12:49:00,
2014-04-18 06:54:00,39.5,21.9,30.01,SSW,207,0.0,8.0,49,0.00,,---,0.00,VWS V14.00,2014-04-18 12:54:00,
2014-04-18 06:59:00,39.4,22.8,30.01,South,179,0.0,8.0,51,0.00,,---,0.00,VWS V14.00,2014-04-18 12:59:00,
2014-04-18 07:04:00,39.3,22.7,30.00,South,187,1.0,8.0,51,0.00,,---,0.00,VWS V14.00,2014-04-18 13:04:00,
2014-04-18 07:09:00,39.0,23.8,30.01,South,184,0.0,8.0,54,0.00,,---,0.00,VWS V14.00,2014-04-18 13:09:00,
2014-04-18 07:14:00,38.7,23.5,30.01,SSW,199,0.0,8.0,54,0.00,,---,0.00,VWS V14.00,2014-04-18 13:14:00,
2014-04-18 07:19:00,38.7,23.9,30.01,SSW,210,4.0,8.0,55,0.00,,---,0.00,VWS V14.00,2014-04-18 13:19:00,
2014-04-18 07:24:00,38.8,24.5,30.01,SW,223,0.0,8.0,56,0.00,,---,0.00,VWS V14.00,2014-04-18 13:24:00,
2014-04-18 07:29:00,38.3,24.4,30.01,SSW,208,0.0,4.0,57,0.00,,---,0.00,VWS V14.00,2014-04-18 13:29:00,
2014-04-18 07:34:00,37.9,23.2,30.00,SSW,207,0.0,4.0,55,0.00,,---,0.00,VWS V14.00,2014-04-18 13:34:00,
2014-04-18 07:39:00,38.0,21.5,30.01,SSW,205,0.0,5.0,51,0.00,,---,0.00,VWS V14.00,2014-04-18 13:39:00,
2014-04-18 07:44:00,39.3,24.9,30.01,SSW,203,0.0,5.0,56,0.00,,---,0.00,VWS V14.00,2014-04-18 13:44:00,
2014-04-18 07:49:00,40.3,23.6,30.00,SSW,203,0.0,5.0,51,0.00,,---,0.00,VWS V14.00,2014-04-18 13:49:00,
2014-04-18 07:54:00,41.3,24.5,30.00,SSW,203,0.0,5.0,51,0.00,,---,0.00,VWS V14.00,2014-04-18 13:54:00,
2014-04-18 07:59:00,41.8,25.0,30.00,South,173,0.0,5.0,51,0.00,,---,0.00,VWS V14.00,2014-04-18 13:59:00,
2014-04-18 08:04:00,43.0,27.0,30.00,SSE,163,0.0,9.0,53,0.00,,---,0.00,VWS V14.00,2014-04-18 14:04:00,
2014-04-18 08:09:00,44.2,23.7,30.00,South,169,7.0,9.0,44,0.00,,---,0.00,VWS V14.00,2014-04-18 14:09:00,
2014-04-18 08:14:00,45.6,28.0,30.00,South,175,0.0,9.0,50,0.00,,---,0.00,VWS V14.00,2014-04-18 14:14:00,
2014-04-18 08:19:00,46.5,27.9,30.00,South,175,1.0,9.0,48,0.00,,---,0.00,VWS V14.00,2014-04-18 14:19:00,
2014-04-18 08:24:00,46.9,25.0,29.99,South,175,0.0,9.0,42,0.00,,---,0.00,VWS V14.00,2014-04-18 14:24:00,
2014-04-18 08:29:00,47.6,22.0,29.99,South,175,0.0,2.0,36,0.00,,---,0.00,VWS V14.00,2014-04-18 14:29:00,
2014-04-18 08:34:00,48.7,24.9,29.99,South,181,0.0,6.0,39,0.00,,---,0.00,VWS V14.00,2014-04-18 14:34:00,
2014-04-18 08:39:00,49.8,25.2,29.99,South,180,0.0,6.0,38,0.00,,---,0.00,VWS V14.00,2014-04-18 14:39:00,
2014-04-18 08:44:00,50.6,25.3,29.99,South,180,0.0,6.0,37,0.00,,---,0.00,VWS V14.00,2014-04-18 14:44:00,
2014-04-18 08:49:00,51.3,24.6,29.99,SSW,211,0.0,6.0,35,0.00,,---,0.00,VWS V14.00,2014-04-18 14:49:00,
2014-04-18 08:54:00,52.0,27.2,29.99,SSW,206,2.0,6.0,38,0.00,,---,0.00,VWS V14.00,2014-04-18 14:54:00,
2014-04-18 08:59:00,52.2,26.7,29.98,SSW,196,0.0,1.0,37,0.00,,---,0.00,VWS V14.00,2014-04-18 14:59:00,
2014-04-18 09:04:00,52.8,23.8,29.98,SSW,196,0.0,2.0,32,0.00,,---,0.00,VWS V14.00,2014-04-18 15:04:00,
2014-04-18 09:09:00,53.8,21.5,29.98,South,190,1.0,5.0,28,0.00,,---,0.00,VWS V14.00,2014-04-18 15:09:00,
2014-04-18 09:14:00,54.9,22.4,29.98,South,189,0.0,5.0,28,0.00,,---,0.00,VWS V14.00,2014-04-18 15:14:00,
2014-04-18 09:19:00,55.9,22.4,29.98,South,189,1.0,5.0,27,0.00,,---,0.00,VWS V14.00,2014-04-18 15:19:00,
2014-04-18 09:24:00,56.8,20.4,29.97,South,189,0.0,5.0,24,0.00,,---,0.00,VWS V14.00,2014-04-18 15:24:00,
2014-04-18 09:29:00,57.1,19.7,29.97,South,189,0.0,0.0,23,0.00,,---,0.00,VWS V14.00,2014-04-18 15:29:00,
2014-04-18 09:34:00,57.5,20.0,29.97,NNW,328,6.0,12.0,23,0.00,,---,0.00,VWS V14.00,2014-04-18 15:34:00,
2014-04-18 09:39:00,57.7,20.2,29.97,West,262,3.0,12.0,23,0.00,,---,0.00,VWS V14.00,2014-04-18 15:39:00,
2014-04-18 09:44:00,58.0,20.4,29.97,SSW,211,0.0,12.0,23,0.00,,---,0.00,VWS V14.00,2014-04-18 15:44:00,
2014-04-18 09:49:00,58.4,21.8,29.96,East,98,0.0,12.0,24,0.00,,---,0.00,VWS V14.00,2014-04-18 15:49:00,
2014-04-18 09:54:00,58.7,20.0,29.96,North,355,0.0,12.0,22,0.00,,---,0.00,VWS V14.00,2014-04-18 15:54:00,
2014-04-18 09:59:00,59.0,20.2,29.96,SSW,202,1.0,8.0,22,0.00,,---,0.00,VWS V14.00,2014-04-18 15:59:00,
2014-04-18 10:04:00,59.3,19.4,29.96,SSW,205,9.0,9.0,21,0.00,,---,0.00,VWS V14.00,2014-04-18 16:04:00,
2014-04-18 10:09:00,59.4,19.5,29.96,WSW,238,3.0,13.0,21,0.00,,---,0.00,VWS V14.00,2014-04-18 16:09:00,
2014-04-18 10:14:00,59.5,19.6,29.95,South,190,0.0,13.0,21,0.00,,---,0.00,VWS V14.00,2014-04-18 16:14:00,
2014-04-18 10:19:00,59.9,22.0,29.95,North,355,1.0,13.0,23,0.00,,---,0.00,VWS V14.00,2014-04-18 16:19:00,
2014-04-18 10:23:00,60.1,22.2,29.95,NW,319,0.0,13.0,23,0.00,,---,0.00,VWS V14.00,2014-04-18 16:23:00,
2014-04-18 10:28:00,60.1,22.2,29.94,SSW,211,3.0,9.0,23,0.00,,---,0.00,VWS V14.00,2014-04-18 16:28:00,
2014-04-18 10:33:00,60.3,21.3,29.94,SSW,200,0.0,9.0,22,0.00,,---,0.00,VWS V14.00,2014-04-18 16:33:00,
2014-04-18 10:38:00,60.5,21.5,29.94,SSW,194,0.0,9.0,22,0.00,,---,0.00,VWS V14.00,2014-04-18 16:38:00,
2014-04-18 10:44:00,60.8,22.8,29.94,SW,232,3.0,9.0,23,0.00,,---,0.00,VWS V14.00,2014-04-18 16:44:00,
2014-04-18 10:49:00,61.1,19.8,29.94,SSW,210,9.0,11.0,20,0.00,,---,0.00,VWS V14.00,2014-04-18 16:49:00,
2014-04-18 10:54:00,60.9,20.7,29.94,SSE,150,6.0,14.0,21,0.00,,---,0.00,VWS V14.00,2014-04-18 16:54:00,
2014-04-18 10:59:00,60.9,22.9,29.94,South,190,0.0,8.0,23,0.00,,---,0.00,VWS V14.00,2014-04-18 16:59:00,
2014-04-18 11:04:00,60.9,20.7,29.94,SSW,194,0.0,14.0,21,0.00,,---,0.00,VWS V14.00,2014-04-18 17:04:00,
2014-04-18 11:09:00,60.8,22.8,29.93,SE,130,1.0,14.0,23,0.00,,---,0.00,VWS V14.00,2014-04-18 17:09:00,
2014-04-18 11:14:00,60.7,24.7,29.94,SSW,204,3.0,14.0,25,0.00,,---,0.00,VWS V14.00,2014-04-18 17:14:00,
2014-04-18 11:19:00,60.7,23.7,29.93,SW,216,2.0,14.0,24,0.00,,---,0.00,VWS V14.00,2014-04-18 17:19:00,
2014-04-18 11:24:00,60.8,24.8,29.93,SSW,204,4.0,15.0,25,0.00,,---,0.00,VWS V14.00,2014-04-18 17:24:00,
2014-04-18 11:28:00,60.8,25.7,29.92,NNW,338,2.0,4.0,26,0.00,,---,0.00,VWS V14.00,2014-04-18 17:28:00,
2014-04-18 11:33:00,61.2,24.1,29.92,WNW,284,0.0,6.0,24,0.00,,---,0.00,VWS V14.00,2014-04-18 17:33:00,
2014-04-18 11:38:00,61.4,24.3,29.92,SSW,192,3.0,7.0,24,0.00,,---,0.00,VWS V14.00,2014-04-18 17:38:00,
2014-04-18 11:43:00,61.5,24.4,29.92,WSW,243,3.0,9.0,24,0.00,,---,0.00,VWS V14.00,2014-04-18 17:43:00,
2014-04-18 11:48:00,61.5,25.4,29.92,SSW,192,0.0,9.0,25,0.00,,---,0.00,VWS V14.00,2014-04-18 17:48:00,
2014-04-18 11:53:00,61.5,22.3,29.92,SW,235,5.0,10.0,22,0.00,,---,0.00,VWS V14.00,2014-04-18 17:53:00,
2014-04-18 11:58:00,61.4,24.3,29.92,WNW,290,1.0,4.0,24,0.00,,---,0.00,VWS V14.00,2014-04-18 17:58:00,
2014-04-18 12:03:00,61.6,25.5,29.91,SSW,210,8.0,8.0,25,0.00,,---,0.00,VWS V14.00,2014-04-18 18:03:00,
2014-04-18 12:08:00,61.8,24.6,29.91,East,100,4.0,8.0,24,0.00,,---,0.00,VWS V14.00,2014-04-18 18:08:00,
2014-04-18 12:13:00,61.5,25.4,29.90,SSW,196,0.0,16.0,25,0.00,,---,0.00,VWS V14.00,2014-04-18 18:13:00,
2014-04-18 12:18:00,61.4,22.2,29.90,SW,215,5.0,16.0,22,0.00,,---,0.00,VWS V14.00,2014-04-18 18:18:00,
2014-04-18 12:23:00,61.4,22.2,29.90,South,175,6.0,16.0,22,0.00,,---,0.00,VWS V14.00,2014-04-18 18:23:00,
2014-04-18 12:28:00,61.0,20.8,29.90,SW,217,9.0,11.0,21,0.00,,---,0.00,VWS V14.00,2014-04-18 18:28:00,
2014-04-18 12:33:00,60.9,23.9,29.89,SE,136,1.0,11.0,24,0.00,,---,0.00,VWS V14.00,2014-04-18 18:33:00,
2014-04-18 12:38:00,61.4,22.2,29.89,SW,230,5.0,11.0,22,0.00,,---,0.00,VWS V14.00,2014-04-18 18:38:00,
2014-04-18 12:43:00,61.5,24.4,29.89,SSE,159,8.0,13.0,24,0.00,,---,0.00,VWS V14.00,2014-04-18 18:43:00,
2014-04-18 12:48:00,61.9,22.7,29.88,SSE,163,6.0,13.0,22,0.00,,---,0.00,VWS V14.00,2014-04-18 18:48:00,
2014-04-18 12:53:00,62.1,20.6,29.88,SW,225,3.0,14.0,20,0.00,,---,0.00,VWS V14.00,2014-04-18 18:53:00,
2014-04-18 12:58:00,62.3,24.1,29.88,South,169,5.0,6.0,23,0.00,,---,0.00,VWS V14.00,2014-04-18 18:58:00,
2014-04-18 13:03:00,62.5,24.2,29.88,SW,221,2.0,14.0,23,0.00,,---,0.00,VWS V14.00,2014-04-18 19:03:00,
2014-04-18 13:08:00,62.5,24.2,29.88,SW,232,4.0,14.0,23,0.00,,---,0.00,VWS V14.00,2014-04-18 19:08:00,
2014-04-18 13:13:00,62.7,22.2,29.88,SSW,199,2.0,14.0,21,0.00,,---,0.00,VWS V14.00,2014-04-18 19:13:00,
2014-04-18 13:18:00,62.7,26.4,29.88,South,180,2.0,14.0,25,0.00,,---,0.00,VWS V14.00,2014-04-18 19:18:00,
2014-04-18 13:23:00,62.7,21.1,29.88,NE,36,3.0,14.0,20,0.00,,---,0.00,VWS V14.00,2014-04-18 19:23:00,
2014-04-18 13:28:00,62.5,20.9,29.88,SSW,198,2.0,9.0,20,0.00,,---,0.00,VWS V14.00,2014-04-18 19:28:00,
2014-04-18 13:33:00,62.2,21.8,29.87,SSW,211,4.0,11.0,21,0.00,,---,0.00,VWS V14.00,2014-04-18 19:33:00,
2014-04-18 13:38:00,62.3,23.0,29.88,SE,126,0.0,11.0,22,0.00,,---,0.00,VWS V14.00,2014-04-18 19:38:00,
2014-04-18 13:43:00,62.1,22.8,29.88,SSW,196,3.0,12.0,22,0.00,,---,0.00,VWS V14.00,2014-04-18 19:43:00,
2014-04-18 13:48:00,62.4,23.1,29.87,South,173,0.0,12.0,22,0.00,,---,0.00,VWS V14.00,2014-04-18 19:48:00,
2014-04-18 13:53:00,61.9,25.7,29.87,SSE,165,7.0,12.0,25,0.00,,---,0.00,VWS V14.00,2014-04-18 19:53:00,
2014-04-18 13:58:00,61.6,20.2,29.87,SSW,207,8.0,11.0,20,0.00,,---,0.00,VWS V14.00,2014-04-18 19:58:00,
2014-04-18 14:03:00,61.6,21.3,29.86,SSE,159,1.0,11.0,21,0.00,,---,0.00,VWS V14.00,2014-04-18 20:03:00,
2014-04-18 14:08:00,62.0,20.5,29.86,SSW,200,1.0,12.0,20,0.00,,---,0.00,VWS V14.00,2014-04-18 20:08:00,
2014-04-18 14:13:00,61.8,21.5,29.86,South,174,0.0,14.0,21,0.00,,---,0.00,VWS V14.00,2014-04-18 20:13:00,
2014-04-18 14:18:00,62.1,20.6,29.85,SSE,163,2.0,14.0,20,0.00,,---,0.00,VWS V14.00,2014-04-18 20:18:00,
2014-04-18 14:23:00,62.3,20.8,29.85,SE,142,0.0,14.0,20,0.00,,---,0.00,VWS V14.00,2014-04-18 20:23:00,
2014-04-18 14:28:00,62.5,22.1,29.85,West,275,1.0,5.0,21,0.00,,---,0.00,VWS V14.00,2014-04-18 20:28:00,
2014-04-18 14:33:00,63.2,17.7,29.84,SW,217,0.0,5.0,17,0.00,,---,0.00,VWS V14.00,2014-04-18 20:33:00,
2014-04-18 14:38:00,63.3,20.4,29.84,South,186,9.0,15.0,19,0.00,,---,0.00,VWS V14.00,2014-04-18 20:38:00,
2014-04-18 14:43:00,62.8,21.2,29.84,SW,214,1.0,15.0,20,0.00,,---,0.00,VWS V14.00,2014-04-18 20:43:00,
2014-04-18 14:48:00,62.9,21.2,29.83,SSE,155,0.0,15.0,20,0.00,,---,0.00,VWS V14.00,2014-04-18 20:48:00,
2014-04-18 14:53:00,63.3,22.7,29.83,South,170,5.0,15.0,21,0.00,,---,0.00,VWS V14.00,2014-04-18 20:53:00,
2014-04-18 14:58:00,63.3,21.6,29.83,ENE,65,6.0,6.0,20,0.00,,---,0.00,VWS V14.00,2014-04-18 20:58:00,
2014-04-18 15:03:00,62.7,21.1,29.83,West,269,3.0,13.0,20,0.00,,---,0.00,VWS V14.00,2014-04-18 21:03:00,
2014-04-18 15:08:00,62.8,21.2,29.82,SSW,198,4.0,19.0,20,0.00,,---,0.00,VWS V14.00,2014-04-18 21:08:00,
2014-04-18 15:13:00,62.4,22.0,29.82,SSE,163,5.0,19.0,21,0.00,,---,0.00,VWS V14.00,2014-04-18 21:13:00,
2014-04-18 15:18:00,62.1,22.8,29.81,WSW,247,5.0,20.0,22,0.00,,---,0.00,VWS V14.00,2014-04-18 21:18:00,
2014-04-18 15:23:00,61.9,23.7,29.81,South,177,2.0,20.0,23,0.00,,---,0.00,VWS V14.00,2014-04-18 21:23:00,
2014-04-18 15:28:00,61.8,21.5,29.81,South,170,4.0,5.0,21,0.00,,---,0.00,VWS V14.00,2014-04-18 21:28:00,
2014-04-18 15:33:00,61.8,21.5,29.80,SSW,195,3.0,16.0,21,0.00,,---,0.00,VWS V14.00,2014-04-18 21:33:00,
2014-04-18 15:38:00,61.6,22.4,29.80,ENE,69,2.0,16.0,22,0.00,,---,0.00,VWS V14.00,2014-04-18 21:38:00,
2014-04-18 15:43:00,61.4,24.3,29.80,SW,234,0.0,16.0,24,0.00,,---,0.00,VWS V14.00,2014-04-18 21:43:00,
2014-04-18 15:48:00,61.1,25.0,29.80,SSE,161,4.0,16.0,25,0.00,,---,0.00,VWS V14.00,2014-04-18 21:48:00,
2014-04-18 15:53:00,60.6,23.6,29.81,SSE,163,4.0,16.0,24,0.00,,---,0.00,VWS V14.00,2014-04-18 21:53:00,
2014-04-18 15:58:00,60.1,24.2,29.80,NNE,23,5.0,9.0,25,0.00,,---,0.00,VWS V14.00,2014-04-18 21:58:00,
2014-04-18 16:03:00,60.0,26.0,29.79,SSE,157,1.0,9.0,27,0.00,,---,0.00,VWS V14.00,2014-04-18 22:03:00,
2014-04-18 16:08:00,60.4,25.4,29.78,SSE,155,6.0,9.0,26,0.00,,---,0.00,VWS V14.00,2014-04-18 22:08:00,
2014-04-18 16:13:00,60.8,22.8,29.78,SSW,198,0.0,9.0,23,0.00,,---,0.00,VWS V14.00,2014-04-18 22:13:00,
2014-04-18 16:18:00,61.1,24.1,29.79,West,266,4.0,9.0,24,0.00,,---,0.00,VWS V14.00,2014-04-18 22:18:00,
2014-04-18 16:23:00,61.3,24.2,29.78,SSE,157,1.0,12.0,24,0.00,,---,0.00,VWS V14.00,2014-04-18 22:23:00,
2014-04-18 16:28:00,60.7,25.6,29.78,South,175,5.0,10.0,26,0.00,,---,0.00,VWS V14.00,2014-04-18 22:28:00,
2014-04-18 16:33:00,60.1,26.0,29.78,SW,219,4.0,12.0,27,0.00,,---,0.00,VWS V14.00,2014-04-18 22:33:00,
2014-04-18 16:38:00,59.9,25.9,29.77,SSE,154,0.0,12.0,27,0.00,,---,0.00,VWS V14.00,2014-04-18 22:38:00,
2014-04-18 16:43:00,60.0,25.0,29.77,SSE,163,0.0,14.0,26,0.00,,---,0.00,VWS V14.00,2014-04-18 22:43:00,
2014-04-18 16:48:00,60.2,24.3,29.78,SW,215,6.0,14.0,25,0.00,,---,0.00,VWS V14.00,2014-04-18 22:48:00,
2014-04-18 16:53:00,60.5,21.5,29.77,SSE,155,6.0,14.0,22,0.00,,---,0.00,VWS V14.00,2014-04-18 22:53:00,
2014-04-18 16:58:00,60.8,21.7,29.78,SSE,152,6.0,8.0,22,0.00,,---,0.00,VWS V14.00,2014-04-18 22:58:00,
2014-04-18 17:03:00,61.0,24.0,29.77,SSE,163,5.0,10.0,24,0.00,,---,0.00,VWS V14.00,2014-04-18 23:03:00,
2014-04-18 17:08:00,60.8,23.8,29.77,SSW,204,0.0,12.0,24,0.00,,---,0.00,VWS V14.00,2014-04-18 23:08:00,
2014-04-18 17:13:00,60.3,20.2,29.76,SSW,201,4.0,12.0,21,0.00,,---,0.00,VWS V14.00,2014-04-18 23:13:00,
2014-04-18 17:18:00,59.9,23.0,29.76,South,184,5.0,12.0,24,0.00,,---,0.00,VWS V14.00,2014-04-18 23:18:00,
2014-04-18 17:23:00,59.7,21.9,29.76,West,267,0.0,12.0,23,0.00,,---,0.00,VWS V14.00,2014-04-18 23:23:00,
2014-04-18 17:28:00,59.5,23.7,29.76,SW,218,1.0,3.0,25,0.00,,---,0.00,VWS V14.00,2014-04-18 23:28:00,
2014-04-18 17:33:00,59.1,22.4,29.76,SSW,194,0.0,11.0,24,0.00,,---,0.00,VWS V14.00,2014-04-18 23:33:00,
2014-04-18 17:38:00,59.0,23.2,29.76,South,187,4.0,11.0,25,0.00,,---,0.00,VWS V14.00,2014-04-18 23:38:00,
2014-04-18 17:43:00,58.8,25.8,29.76,SW,228,0.0,11.0,28,0.00,,---,0.00,VWS V14.00,2014-04-18 23:43:00,
2014-04-18 17:48:00,58.7,24.8,29.76,South,183,2.0,12.0,27,0.00,,---,0.00,VWS V14.00,2014-04-18 23:48:00,
2014-04-18 17:53:00,58.5,23.8,29.76,South,173,0.0,12.0,26,0.00,,---,0.00,VWS V14.00,2014-04-18 23:53:00,
2014-04-18 17:58:00,58.3,22.6,29.76,SW,221,1.0,6.0,25,0.00,,---,0.00,VWS V14.00,2014-04-18 23:58:00,
2014-04-18 18:03:00,58.1,29.9,29.76,SSW,211,1.0,6.0,34,0.00,,---,0.00,VWS V14.00,2014-04-19 00:03:00,
2014-04-18 18:08:00,57.8,26.6,29.76,SSW,213,1.0,8.0,30,0.00,,---,0.00,VWS V14.00,2014-04-19 00:08:00,
2014-04-18 18:13:00,57.4,29.3,29.76,SW,229,0.0,8.0,34,0.00,,---,0.00,VWS V14.00,2014-04-19 00:13:00,
2014-04-18 18:18:00,57.0,25.9,29.76,SSW,211,4.0,11.0,30,0.00,,---,0.00,VWS V14.00,2014-04-19 00:18:00,
2014-04-18 18:23:00,56.8,24.9,29.76,SW,215,4.0,14.0,29,0.00,,---,0.00,VWS V14.00,2014-04-19 00:23:00,
2014-04-18 18:28:00,56.6,24.7,29.76,SSW,205,2.0,5.0,29,0.00,,---,0.00,VWS V14.00,2014-04-19 00:28:00,
2014-04-18 18:38:00,55.8,24.9,29.77,South,181,7.0,17.0,30,0.00,,---,0.00,VWS V14.00,2014-04-19 00:38:00,
2014-04-18 18:43:00,55.5,26.1,29.77,South,169,9.0,17.0,32,0.00,,---,0.00,VWS V14.00,2014-04-19 00:43:00,
2014-04-18 18:48:00,55.3,26.0,29.77,SSE,162,6.0,19.0,32,0.00,,---,0.00,VWS V14.00,2014-04-19 00:48:00,
2014-04-18 18:53:00,55.0,27.2,29.77,South,175,7.0,19.0,34,0.00,,---,0.00,VWS V14.00,2014-04-19 00:53:00,
2014-04-18 18:58:00,54.7,27.6,29.76,SSE,161,5.0,6.0,35,0.00,,---,0.00,VWS V14.00,2014-04-19 00:58:00,
2014-04-18 19:03:00,54.4,30.6,29.76,SSW,201,0.0,6.0,40,0.00,,---,0.00,VWS V14.00,2014-04-19 01:03:00,
2014-04-18 19:08:00,54.0,30.2,29.76,SSW,200,1.0,6.0,40,0.00,,---,0.00,VWS V14.00,2014-04-19 01:08:00,
2014-04-18 19:13:00,53.5,31.0,29.75,SSW,211,0.0,6.0,42,0.00,,---,0.00,VWS V14.00,2014-04-19 01:13:00,
2014-04-18 19:18:00,52.9,31.6,29.75,SSW,211,0.0,6.0,44,0.00,,---,0.00,VWS V14.00,2014-04-19 01:18:00,
2014-04-18 19:23:00,52.2,29.2,29.75,SSW,212,0.0,6.0,41,0.00,,---,0.00,VWS V14.00,2014-04-19 01:23:00,
2014-04-18 19:40:00,49.9,30.5,29.75,SW,225,0.0,12.0,47,0.00,,---,0.00,VWS V14.00,2014-04-19 01:40:00,
2014-04-18 19:45:00,48.8,30.0,29.75,SW,223,1.0,12.0,48,0.00,,---,0.00,VWS V14.00,2014-04-19 01:45:00,
2014-04-18 19:50:00,48.0,30.3,29.74,SW,223,2.0,12.0,50,0.00,,---,0.00,VWS V14.00,2014-04-19 01:50:00,